Погода в Гвасюги

Погода в Гвасюги : погода сейчас, прогноз погоды и архив. Всё, что Вы хотите узнать о погоде в Гвасюги!

Поиск расширенной информации на нашем сайте:

Другие новости

Новости СМИ2

Главная страница сайта

Новости сайта

03.07.2017

Напоминаем, что на нашем специализированном сайте Метеоцентр.Азия вы можете получить высокодетализированные автоматические прогнозы погоды по пунктам России, СНГ и мира в авиационном формате (включающие направление и скорость ветра, видимость, явления погоды, количество и форму облачности, нижнюю и верхнюю границу облачности).


Погода в Гвасюги - сегодня

Время (UTC), дата Ветер
(°,м/с) 
Видим.   Явления Облачность Т
(°С)
Тd
(°С)
f(%) Тe
(°С)
Pmin
(гПа)
dP
(гПа)
Po
(мм)
O2
(г/м3)
Тmin Tmax R s Состояние
почвы
00 18.04.18 070 (В) 20000 м    10/3 600 м средняя, верхняя 
[Sc|Ac trans|Cs]
+10.3 +0.1 49 +11  1009.4  -0.2  741  288           
03 18.04.18 220 (ЮЗ) 20000 м    10/0 средняя, верхняя 
[Ac cast|Cs]
+16 -0.9 31 +16  1006.7  -2.2  739  281           
06 18.04.18 250 (З) 20000 м    10/6 600 м средняя, верхняя 
[Cu Sc|Ac lent|Cs]
+17.4 +0.3 31 +18  1005.3  -1.3  738  280           
12 18.04.18 350 (С) 20000 м    3/3 600 м 
[Sc]
+5.7 +1 72 +5  1007.5  1.5  739  292           
15 18.04.18 010 (С) 20000 м    ясно 
+1 -0.6 89 +2  1008.7  0.8  740  297           
18 18.04.18 360 (С) 20000 м    ясно 
-1.4 -2 96 -1  1009.3  0.4  740  300           
00 19.04.18 130 (ЮВ) 20000 м    10/0 верхняя 
[Cs]
+9.6 +1.9 59 +11  1008.8  -0.2  740  288           
03 19.04.18 140 (ЮВ) 10 км  дым  10/0 верхняя 
[Cs]
+17.7 +2.3 36 +19  1007.1  -1  740  280           
06 19.04.18 080 (В) 10 км  дым  10/3 600 м верхняя 
[Sc|Cs]
+20.2 -2 22 +20  1005.5  -1.5  739  277           
12 19.04.18 360 (С) 20000 м    10/4 600 м кучево-дожд., верхняя 
[Cb cap|Cs]
+7 -0.8 58 +7  1010.3  3.1  741  291           
15 19.04.18 020 (С) 20000 м    3/3 600 м кучево-дожд., верхняя 
[Cb cap|Ci sp]
+1.1 -1.6 82 +2  1012.7  1.8  743  298           
18 19.04.18 тихо ()   20000 м    4/0 верхняя 
[Ci fib]
-1.8 -2.8 93 -2  1013.4  0.4  743  302           
00 20.04.18 тихо ()   20000 м    6/0 верхняя 
[Ci sp]
+9.3 +1.1 56 +9  1013.1  -0.8  743  290           
03 20.04.18 220 (ЮЗ) 20000 м    10/5 600 м средняя 
[Sc|As trans]
+19.1 +2.5 33 +20  1009.6  -2.6  742  279           
06 20.04.18 230 (ЮЗ) 20000 м    6/3 600 м верхняя 
[Cu hum|Cc]
+21.9 +2.2 27 +22  1007.6  -1.8  740  276           
12 20.04.18 210 (ЮЗ) 20000 м    4/0 верхняя 
[Ci fib]
+14.3 +3.4 48 +15  1006.4  0.7  739  282           
15 20.04.18 200 (Ю) 20000 м    10/8 600 м средняя 
[Sc|Ac und]
+14.4 +5.9 57 +15  1004.7  0.7  738  281           
21 20.04.18 190 (Ю) 2000 м  слаб. дождь{туман}  10/4 600 м средняя 
[Frnb|As op]
+9.2 +8.7 97 +9  1001.8  -1.4  735  285  +8.3      мокрая 
00 21.04.18 240 (ЮЗ) 10 км  слаб. дождь{туман}  10/8 600 м средняя 
[Frnb|As op]
+9.9 +9.1 95 +11  1003.7  1.9  737  285           
06 21.04.18 290 (З) 20000 м  {дождь}  9/8 600 м средняя, верхняя 
[Cu Sc|Ac lent|Ci sp]
+11.6 +2.9 55 +12  1009.6  3.5  741  286           
12 21.04.18 тихо ()   20000 м    3/0 верхняя 
[Ci sp]
-0.1 -1.2 92 -0  1015.6  3.2  745  300           
15 21.04.18 340 (С) 20000 м    ясно 
-1.7 -2.2 96 -3  1018.2  2.3  747  303           
18 21.04.18 тихо ()   20000 м    8/0 средняя 
[Ac lent]
-2.7 -3.3 96 -3  1021.3  749  305           
00 22.04.18 170 (Ю) 20000 м    3/0 верхняя 
[Ci fib]
+7 -0.7 58 +7  1023.4  0.5  751  295           
03 22.04.18 270 (З) 20000 м    10/6 600 м кучево-дожд., верхняя 
[Cb cap|Ci sp]
+11.3 -7.6 26 +11  1021.7  -1.4  750  291           
Время (UTC), дата Ветер
(°,м/с) 
Видим.   Явления Облачность Т
(°С)
Тd
(°С)
f(%) Тe
(°С)
Pmin
(гПа)
dP
(гПа)
Po
(мм)
O2
(г/м3)
Тmin Tmax R s Состояние
почвы

Для получения пояснительной информации подведите курсор к названию столбца.

ПОГОДА в Гвасюги - архив

Всё, что Вы хотите узнать о погоде в Гвасюги - удобно и подробно!

Выберите нужную дату (начиная с 1 января 2015* года) и нажмите кнопку "Найти".
Будут отображены архивные сводки погоды по пункту Гвасюги, начиная с указанной даты.


Отображать данные в формате CSV (для использования в таблицах Excel)


Внимание! Наш архив погоды предназначен исключительно для личного некоммерческого использования в познавательных целях. Если Вам необходимы официальные справки о состоянии погоды (для производственных, юридических, коммерческих и т.п. целей), обращайтесь в органы Росгидромета.

*Примечание: данная дата относится к архиву по метеостанциям СССР (Россия, СНГ, Балтия).
Архив по метеостанциям Зарубежной Европы и Азии (кроме Китая) хранится 10 дней, по другим регионам земного шара (Китай, Африка, Америка, Австралия, Океания) - 1 день.

Гвасюги - район местоположения метеостанции


Название, широта, долгота, высота метеостанции:
Гвасюги 47.7°ш. 136.2°д. 180 м над ур. моря [Российская Федерация]

Дополнительная информация

В oтличие oт бoльшинства пoгoдных сайтoв мы публикуем пoдрoбную метеoинфoрмацию в детальнoм прoфессиoнальнoм фoрмате.

Характеристики температуры и влажнoсти вoздуха измеряются на высoте 2 м в тени вдали oт зданий и деревьев.
Скoрoсть ветра измеряется на высoте 10 м (на урoвне рoста челoвека скoрoсть ветра ниже в 1.5-2 раза). Если метеoстанция нахoдится в гoрoде или в лесу, тo скoрoсть ветра занижена на 2-4 м/с пo сравнению с oткрытым местoм. Скoрoсть ветра над акватoриями крупных рек и oзёр, а также на вершинах хoлмoв на 2-5 м/с выше, чем в oбычных услoвиях.
Атмoсфернoе давление в разных тoчках местнoсти мoжет значительнo oтличаться oт давления на метеoстанции, в зависимoсти oт услoвий рельефа (при пoдъёме на 10 м давление пoнижается примернo на 1 мм рт.ст.).